Location: Kernascl�den
(48.0062°N, 3.3198°W)
Time: 22:58:26
(UTC+00:00)

Tsikada Rocket - Pass Details

Date: 21 January 2021
Orbit: 957 x 1009 km, 82.9° (Epoch: 04 March)

Event Time Altitude Azimuth Distance (km) Brightness Sun altitude
Rises 17:21:53 0° 191° (S) 3,703 7.6 -4.6°
Reaches altitude 10° 17:24:25 10° 193° (SSW) 2,751 6.9 -5.0°
Maximum altitude 17:30:44 78° 279° (W) 1,009 4.3 -6.0°
Drops below altitude 10° 17:37:01 10° 7° (N) 2,733 6.1 -6.9°
Sets 17:39:32 0° 9° (N) 3,678 6.7 -7.3°
